TITAN 3C TRANSTAGE DEB, 1668

Orbit data source: Space-Track

TITAN 3C TRANSTAGE DEB, 1668 is space debris in LEO originally from a launch on Fri, 15 Oct 1965 UTC launched from the Air Force Eastern Test Range (AFETR). Debris objects in space refer to the collection of defunct objects orbiting the Earth. Examples of debris include non-operational satellites, rocket bodies, and fragments generated from explosions, collisions, or faulty payload assembly.

Loading next visibility...
Identifier
1668, 1965-082AF
Orbit
LEO
Country
Flag of USUS
Related business
Manufacturer
Unknown
Mission
Spacecraft
Bus & Motor
Unknown
Mass
370 kg wet, 370 kg dry
Launch date (UTC)
1965-10-15 (60 years ago)
Launch vehicle
Unknown
Launch site
Air Force Eastern Test Range (AFETR)
Object type
Payload
Rocket body
Debris
Shape & HBR
Unknown shape, 1.2 m
Radar Cross Section
Large (>1 m²)

Expand to show TLE details & history
Last TLE update: 6 hours ago

TLE from 6 hours ago
0 TITAN 3C TRANSTAGE DEB
1 01668U 65082AF  26070.94774172  .00001925  00000-0  23023-3 0  9998
2 01668  32.0684  49.7624 0014473 165.7925 194.3134 14.82292180203908
Epoch: 2026-03-11T22:44Z
TLE epoch observation values (Epoch: 2026-03-11T22:44:44.884Z)
Latitude
-0°
Longitude
-101.02929°
Altitude
630.545 km
Speed
7.54 km/s
True Right ascension
03h 19m 02s
True Declination
0° 00' 00"
Sunlit
Object was in daylight at epoch
Visualization orbit readout
Latitude
Unknown
Longitude
Unknown
Altitude
Unknown
Speed
Unknown
Apparent Right ascension
Unknown
Apparent Declination
Unknown
Sunlit
N/A
Visualization observer readout
Local Sidereal Time
09:19:32
Azimuth
Unknown
Elevation
Unknown
Doppler factor
Unknown
Orbital elements
Apogee altitude
635.872 km
Perigee altitude
615.598 km
Semi-major axis
7,003.872 km
Eccentricity
0.00145
Inclination
32.0684°
RAAN
49.7624°
Arg. of periapsis
165.7925°
True anomaly
194.27247°
Mean anomaly
194.3134°
Eccentric anomaly
194.29293°
Mean motion
3.70285 °/min
Orbital period
97.22 mins
BSTAR
0.00023023

Documentation

Showing up to 5 results
|